owner,sensor,date,latitude,longitude,vertical_datum,sea_water_practical_salinity,qcFlag 
NERRS,ioos:station:NOAA.NERRS:apaebwq:1,2016-05-01T14:45:00Z,29.7858,-84.8752,2.35,1.4,1111122 
NERRS,ioos:station:NOAA.NERRS:apaebwq:1,2016-05-01T15:45:00Z,29.7858,-84.8752,2.41,1.2,1111122 
NERRS,ioos:station:NOAA.NERRS:apaebwq:1,2016-05-01T16:45:00Z,29.7858,-84.8752,2.43,1.3,1111122 
NERRS,ioos:station:NOAA.NERRS:apaebwq:1,2016-05-01T17:45:00Z,29.7858,-84.8752,2.4,1.2,1111122 
NERRS,ioos:station:NOAA.NERRS:apaebwq:1,2016-05-01T18:45:00Z,29.7858,-84.8752,2.35,1.4,1111122 
NERRS,ioos:station:NOAA.NERRS:apaebwq:1,2016-05-01T19:45:00Z,29.7858,-84.8752,2.28,1.7,1111122 
NERRS,ioos:station:NOAA.NERRS:apaebwq:1,2016-05-01T20:45:00Z,29.7858,-84.8752,2.23,1.4,1111122 
NERRS,ioos:station:NOAA.NERRS:apaebwq:1,2016-05-01T21:45:00Z,29.7858,-84.8752,0.0,1.5,1111122 
NERRS,ioos:station:NOAA.NERRS:apaebwq:1,2016-05-02T14:45:00Z,29.7858,-84.8752,2.22,1.3,1111122 
NERRS,ioos:station:NOAA.NERRS:apaebwq:1,2016-05-02T15:45:00Z,29.7858,-84.8752,2.32,1.2,1111122 
NERRS,ioos:station:NOAA.NERRS:apaebwq:1,2016-05-02T16:45:00Z,29.7858,-84.8752,2.4,1.4,1111122 
NERRS,ioos:station:NOAA.NERRS:apaebwq:1,2016-05-02T17:45:00Z,29.7858,-84.8752,2.41,1.4,1111122 
NERRS,ioos:station:NOAA.NERRS:apaebwq:1,2016-05-02T18:45:00Z,29.7858,-84.8752,2.35,1.5,1111122 
NERRS,ioos:station:NOAA.NERRS:apaebwq:1,2016-05-02T19:45:00Z,29.7858,-84.8752,2.27,1.6,1111122 
NERRS,ioos:station:NOAA.NERRS:apaebwq:1,2016-05-02T20:45:00Z,29.7858,-84.8752,2.15,1.5,1111122 
NERRS,ioos:station:NOAA.NERRS:apaebwq:1,2016-05-02T21:45:00Z,29.7858,-84.8752,2.07,1.7,1111122 
NERRS,ioos:station:NOAA.NERRS:apaebwq:1,2016-05-03T14:45:00Z,29.7858,-84.8752,2.14,1.4,1111122 
NERRS,ioos:station:NOAA.NERRS:apaebwq:1,2016-05-03T15:45:00Z,29.7858,-84.8752,2.23,1.5,1111122 
NERRS,ioos:station:NOAA.NERRS:apaebwq:1,2016-05-03T16:45:00Z,29.7858,-84.8752,2.32,1.3,1111122 
NERRS,ioos:station:NOAA.NERRS:apaebwq:1,2016-05-03T17:45:00Z,29.7858,-84.8752,2.39,1.1,1111122 
NERRS,ioos:station:NOAA.NERRS:apaebwq:1,2016-05-03T18:45:00Z,29.7858,-84.8752,2.37,1.1,1111122 
NERRS,ioos:station:NOAA.NERRS:apaebwq:1,2016-05-03T19:45:00Z,29.7858,-84.8752,2.3,1.1,1111122 
NERRS,ioos:station:NOAA.NERRS:apaebwq:1,2016-05-03T20:45:00Z,29.7858,-84.8752,2.22,1.6,1111122 
NERRS,ioos:station:NOAA.NERRS:apaebwq:1,2016-05-03T21:45:00Z,29.7858,-84.8752,2.1,1.4,1111122 
NERRS,ioos:station:NOAA.NERRS:apaebwq:1,2016-05-03T22:45:00Z,29.7858,-84.8752,2.02,1.4,1111122 
NERRS,ioos:station:NOAA.NERRS:apaebwq:1,2016-05-03T23:45:00Z,29.7858,-84.8752,1.96,1.3,1111122 
NERRS,ioos:station:NOAA.NERRS:apaebwq:1,2016-05-04T00:45:00Z,29.7858,-84.8752,1.91,1.4,1111122 
NERRS,ioos:station:NOAA.NERRS:apaebwq:1,2016-05-04T01:45:00Z,29.7858,-84.8752,1.92,1.5,1111122 
NERRS,ioos:station:NOAA.NERRS:apaebwq:1,2016-05-04T02:45:00Z,29.7858,-84.8752,2.01,1.5,1111122 
NERRS,ioos:station:NOAA.NERRS:apaebwq:1,2016-05-04T03:45:00Z,29.7858,-84.8752,2.12,1.1,1111122 
NERRS,ioos:station:NOAA.NERRS:apaebwq:1,2016-05-04T04:45:00Z,29.7858,-84.8752,2.2,1.1,1111122 
NERRS,ioos:station:NOAA.NERRS:apaebwq:1,2016-05-04T05:45:00Z,29.7858,-84.8752,2.28,1.1,1111122 
NERRS,ioos:station:NOAA.NERRS:apaebwq:1,2016-05-04T06:45:00Z,29.7858,-84.8752,2.31,1.1,1111122 
NERRS,ioos:station:NOAA.NERRS:apaebwq:1,2016-05-04T07:45:00Z,29.7858,-84.8752,2.27,1.1,1111122 
NERRS,ioos:station:NOAA.NERRS:apaebwq:1,2016-05-04T08:45:00Z,29.7858,-84.8752,2.17,1.2,1111122 
NERRS,ioos:station:NOAA.NERRS:apaebwq:1,2016-05-04T09:45:00Z,29.7858,-84.8752,2.05,1.4,1111122 
NERRS,ioos:station:NOAA.NERRS:apaebwq:1,2016-05-04T10:45:00Z,29.7858,-84.8752,1.97,1.2,1111122 
NERRS,ioos:station:NOAA.NERRS:apaebwq:1,2016-05-04T11:45:00Z,29.7858,-84.8752,1.89,1.4,1111122 
NERRS,ioos:station:NOAA.NERRS:apaebwq:1,2016-05-04T12:45:00Z,29.7858,-84.8752,1.83,1.6,1111122 
NERRS,ioos:station:NOAA.NERRS:apaebwq:1,2016-05-04T13:45:00Z,29.7858,-84.8752,1.81,1.5,1111122 
NERRS,ioos:station:NOAA.NERRS:apaebwq:1,2016-05-04T14:45:00Z,29.7858,-84.8752,1.87,1.5,1111122 
NERRS,ioos:station:NOAA.NERRS:apaebwq:1,2016-05-04T15:45:00Z,29.7858,-84.8752,2.0,1.2,1111122 
NERRS,ioos:station:NOAA.NERRS:apaebwq:1,2016-05-04T16:45:00Z,29.7858,-84.8752,2.13,1.0,1111122 
NERRS,ioos:station:NOAA.NERRS:apaebwq:1,2016-05-04T17:45:00Z,29.7858,-84.8752,2.24,1.2,1111122 
NERRS,ioos:station:NOAA.NERRS:apaebwq:1,2016-05-04T18:45:00Z,29.7858,-84.8752,2.25,1.2,1111122 
NERRS,ioos:station:NOAA.NERRS:apaebwq:1,2016-05-04T19:45:00Z,29.7858,-84.8752,2.24,1.1,1111122 
NERRS,ioos:station:NOAA.NERRS:apaebwq:1,2016-05-04T20:45:00Z,29.7858,-84.8752,2.17,1.2,1111122 
NERRS,ioos:station:NOAA.NERRS:apaebwq:1,2016-05-04T21:45:00Z,29.7858,-84.8752,2.07,1.4,1111122 
NERRS,ioos:station:NOAA.NERRS:apaebwq:1,2016-05-04T22:45:00Z,29.7858,-84.8752,1.94,1.2,1111122 
NERRS,ioos:station:NOAA.NERRS:apaebwq:1,2016-05-04T23:45:00Z,29.7858,-84.8752,1.85,1.2,1111122 
NERRS,ioos:station:NOAA.NERRS:apaebwq:1,2016-05-05T00:45:00Z,29.7858,-84.8752,1.74,1.2,1111122 
NERRS,ioos:station:NOAA.NERRS:apaebwq:1,2016-05-05T01:45:00Z,29.7858,-84.8752,1.68,1.4,1111122 
NERRS,ioos:station:NOAA.NERRS:apaebwq:1,2016-05-05T02:45:00Z,29.7858,-84.8752,1.67,1.5,1111122 
NERRS,ioos:station:NOAA.NERRS:apaebwq:1,2016-05-05T03:45:00Z,29.7858,-84.8752,1.75,1.5,1111122 
NERRS,ioos:station:NOAA.NERRS:apaebwq:1,2016-05-05T04:45:00Z,29.7858,-84.8752,1.85,1.2,1111122 
NERRS,ioos:station:NOAA.NERRS:apaebwq:1,2016-05-05T05:45:00Z,29.7858,-84.8752,1.97,1.2,1111122 
NERRS,ioos:station:NOAA.NERRS:apaebwq:1,2016-05-05T06:45:00Z,29.7858,-84.8752,2.05,1.1,1111122 
NERRS,ioos:station:NOAA.NERRS:apaebwq:1,2016-05-05T07:45:00Z,29.7858,-84.8752,2.08,1.2,1111122 
NERRS,ioos:station:NOAA.NERRS:apaebwq:1,2016-05-05T08:45:00Z,29.7858,-84.8752,2.03,1.4,1111122 
NERRS,ioos:station:NOAA.NERRS:apaebwq:1,2016-05-05T09:45:00Z,29.7858,-84.8752,1.95,1.2,1111122 
NERRS,ioos:station:NOAA.NERRS:apaebwq:1,2016-05-05T10:45:00Z,29.7858,-84.8752,1.86,1.3,1111122 
NERRS,ioos:station:NOAA.NERRS:apaebwq:1,2016-05-05T11:45:00Z,29.7858,-84.8752,1.79,1.3,1111122 
NERRS,ioos:station:NOAA.NERRS:apaebwq:1,2016-05-05T12:45:00Z,29.7858,-84.8752,1.74,1.3,1111122 
NERRS,ioos:station:NOAA.NERRS:apaebwq:1,2016-05-05T13:45:00Z,29.7858,-84.8752,1.71,1.4,1111122 
NERRS,ioos:station:NOAA.NERRS:apaebwq:1,2016-05-05T14:45:00Z,29.7858,-84.8752,1.76,1.4,1111122 
NERRS,ioos:station:NOAA.NERRS:apaebwq:1,2016-05-05T15:45:00Z,29.7858,-84.8752,1.87,1.3,1111122 
NERRS,ioos:station:NOAA.NERRS:apaebwq:1,2016-05-05T16:45:00Z,29.7858,-84.8752,1.96,1.4,1111122 
NERRS,ioos:station:NOAA.NERRS:apaebwq:1,2016-05-05T17:45:00Z,29.7858,-84.8752,2.03,1.3,1111122 
NERRS,ioos:station:NOAA.NERRS:apaebwq:1,2016-05-05T18:45:00Z,29.7858,-84.8752,2.09,1.4,1111122 
NERRS,ioos:station:NOAA.NERRS:apaebwq:1,2016-05-05T19:45:00Z,29.7858,-84.8752,2.07,1.4,1111122 
NERRS,ioos:station:NOAA.NERRS:apaebwq:1,2016-05-05T20:45:00Z,29.7858,-84.8752,2.0,1.4,1111122 
NERRS,ioos:station:NOAA.NERRS:apaebwq:1,2016-05-05T21:45:00Z,29.7858,-84.8752,1.92,1.3,1111122 
NERRS,ioos:station:NOAA.NERRS:apaebwq:1,2016-05-05T22:45:00Z,29.7858,-84.8752,1.81,1.3,1111122 
NERRS,ioos:station:NOAA.NERRS:apaebwq:1,2016-05-05T23:45:00Z,29.7858,-84.8752,1.71,1.3,1111122 
NERRS,ioos:station:NOAA.NERRS:apaebwq:1,2016-05-06T00:45:00Z,29.7858,-84.8752,1.61,1.5,1111122 
NERRS,ioos:station:NOAA.NERRS:apaebwq:1,2016-05-06T01:45:00Z,29.7858,-84.8752,1.53,1.6,1111122 
NERRS,ioos:station:NOAA.NERRS:apaebwq:1,2016-05-06T02:45:00Z,29.7858,-84.8752,1.47,1.8,1111122 
NERRS,ioos:station:NOAA.NERRS:apaebwq:1,2016-05-06T03:45:00Z,29.7858,-84.8752,1.47,2.0,1111122 
NERRS,ioos:station:NOAA.NERRS:apaebwq:1,2016-05-06T04:45:00Z,29.7858,-84.8752,1.55,1.7,1111122 
NERRS,ioos:station:NOAA.NERRS:apaebwq:1,2016-05-06T05:45:00Z,29.7858,-84.8752,1.68,1.7,1111122 
NERRS,ioos:station:NOAA.NERRS:apaebwq:1,2016-05-06T06:45:00Z,29.7858,-84.8752,1.81,1.3,1111122 
NERRS,ioos:station:NOAA.NERRS:apaebwq:1,2016-05-06T07:45:00Z,29.7858,-84.8752,1.92,1.3,1111122 
NERRS,ioos:station:NOAA.NERRS:apaebwq:1,2016-05-06T08:45:00Z,29.7858,-84.8752,1.97,1.3,1111122 
NERRS,ioos:station:NOAA.NERRS:apaebwq:1,2016-05-06T09:45:00Z,29.7858,-84.8752,1.95,1.3,1111122 
NERRS,ioos:station:NOAA.NERRS:apaebwq:1,2016-05-06T10:45:00Z,29.7858,-84.8752,1.95,1.3,1111122 
NERRS,ioos:station:NOAA.NERRS:apaebwq:1,2016-05-06T11:45:00Z,29.7858,-84.8752,1.94,1.3,1111122 
NERRS,ioos:station:NOAA.NERRS:apaebwq:1,2016-05-06T12:45:00Z,29.7858,-84.8752,1.88,1.4,1111122 
NERRS,ioos:station:NOAA.NERRS:apaebwq:1,2016-05-06T13:45:00Z,29.7858,-84.8752,1.8,1.5,1111122 
NERRS,ioos:station:NOAA.NERRS:apaebwq:1,2016-05-06T15:45:00Z,29.7858,-84.8752,1.91,1.4,1111122 
NERRS,ioos:station:NOAA.NERRS:apaebwq:1,2016-05-06T16:45:00Z,29.7858,-84.8752,2.01,1.2,1111122 
NERRS,ioos:station:NOAA.NERRS:apaebwq:1,2016-05-06T17:45:00Z,29.7858,-84.8752,2.1,1.0,1111122 
NERRS,ioos:station:NOAA.NERRS:apaebwq:1,2016-05-06T18:45:00Z,29.7858,-84.8752,2.15,0.9,1111122 
NERRS,ioos:station:NOAA.NERRS:apaebwq:1,2016-05-06T19:45:00Z,29.7858,-84.8752,2.18,0.8,1111122 
NERRS,ioos:station:NOAA.NERRS:apaebwq:1,2016-05-06T20:45:00Z,29.7858,-84.8752,2.15,0.9,1111122 
NERRS,ioos:station:NOAA.NERRS:apaebwq:1,2016-05-06T21:45:00Z,29.7858,-84.8752,2.08,0.8,1111122 
NERRS,ioos:station:NOAA.NERRS:apaebwq:1,2016-05-06T22:45:00Z,29.7858,-84.8752,1.95,1.1,1111122 
NERRS,ioos:station:NOAA.NERRS:apaebwq:1,2016-05-06T23:45:00Z,29.7858,-84.8752,1.86,1.1,1111122 
NERRS,ioos:station:NOAA.NERRS:apaebwq:1,2016-05-07T00:45:00Z,29.7858,-84.8752,1.76,1.3,1111122 
NERRS,ioos:station:NOAA.NERRS:apaebwq:1,2016-05-07T01:45:00Z,29.7858,-84.8752,1.66,1.4,1111122 
NERRS,ioos:station:NOAA.NERRS:apaebwq:1,2016-05-07T02:45:00Z,29.7858,-84.8752,1.56,1.6,1111122 
NERRS,ioos:station:NOAA.NERRS:apaebwq:1,2016-05-07T03:45:00Z,29.7858,-84.8752,1.5,1.7,1111122 
NERRS,ioos:station:NOAA.NERRS:apaebwq:1,2016-05-07T04:45:00Z,29.7858,-84.8752,1.49,1.7,1111122 
NERRS,ioos:station:NOAA.NERRS:apaebwq:1,2016-05-07T05:45:00Z,29.7858,-84.8752,1.58,1.6,1111122 
NERRS,ioos:station:NOAA.NERRS:apaebwq:1,2016-05-07T06:45:00Z,29.7858,-84.8752,1.73,1.5,1111122 
NERRS,ioos:station:NOAA.NERRS:apaebwq:1,2016-05-07T07:45:00Z,29.7858,-84.8752,1.88,1.2,1111122 
NERRS,ioos:station:NOAA.NERRS:apaebwq:1,2016-05-07T08:45:00Z,29.7858,-84.8752,2.01,1.1,1111122 
NERRS,ioos:station:NOAA.NERRS:apaebwq:1,2016-05-07T09:45:00Z,29.7858,-84.8752,2.09,0.9,1111122 
NERRS,ioos:station:NOAA.NERRS:apaebwq:1,2016-05-07T10:45:00Z,29.7858,-84.8752,2.12,0.8,1111122 
NERRS,ioos:station:NOAA.NERRS:apaebwq:1,2016-05-07T11:45:00Z,29.7858,-84.8752,2.09,1.1,1111122 
NERRS,ioos:station:NOAA.NERRS:apaebwq:1,2016-05-07T12:45:00Z,29.7858,-84.8752,2.02,1.1,1111122 
NERRS,ioos:station:NOAA.NERRS:apaebwq:1,2016-05-07T13:45:00Z,29.7858,-84.8752,1.94,1.4,1111122 
NERRS,ioos:station:NOAA.NERRS:apaebwq:1,2016-05-07T14:45:00Z,29.7858,-84.8752,1.91,1.4,1111122 
NERRS,ioos:station:NOAA.NERRS:apaebwq:1,2016-05-07T15:45:00Z,29.7858,-84.8752,1.92,1.4,1111122 
NERRS,ioos:station:NOAA.NERRS:apaebwq:1,2016-05-07T16:45:00Z,29.7858,-84.8752,2.0,1.4,1111122 
NERRS,ioos:station:NOAA.NERRS:apaebwq:1,2016-05-07T17:45:00Z,29.7858,-84.8752,2.1,1.0,1111122 
NERRS,ioos:station:NOAA.NERRS:apaebwq:1,2016-05-07T18:45:00Z,29.7858,-84.8752,2.19,0.8,1111122 
NERRS,ioos:station:NOAA.NERRS:apaebwq:1,2016-05-07T19:45:00Z,29.7858,-84.8752,2.24,0.8,1111122 
NERRS,ioos:station:NOAA.NERRS:apaebwq:1,2016-05-07T20:45:00Z,29.7858,-84.8752,2.33,0.7,1111122 
NERRS,ioos:station:NOAA.NERRS:apaebwq:1,2016-05-07T21:45:00Z,29.7858,-84.8752,2.26,0.7,1111122 
NERRS,ioos:station:NOAA.NERRS:apaebwq:1,2016-05-07T22:45:00Z,29.7858,-84.8752,2.09,1.0,1111122 
NERRS,ioos:station:NOAA.NERRS:apaebwq:1,2016-05-07T23:45:00Z,29.7858,-84.8752,1.95,1.1,1111122 
NERRS,ioos:station:NOAA.NERRS:apaebwq:1,2016-05-08T00:45:00Z,29.7858,-84.8752,1.82,1.2,1111122 
NERRS,ioos:station:NOAA.NERRS:apaebwq:1,2016-05-08T01:45:00Z,29.7858,-84.8752,1.72,1.4,1111122 
NERRS,ioos:station:NOAA.NERRS:apaebwq:1,2016-05-08T02:45:00Z,29.7858,-84.8752,1.62,1.6,1111122 
NERRS,ioos:station:NOAA.NERRS:apaebwq:1,2016-05-08T03:45:00Z,29.7858,-84.8752,1.55,1.8,1111122 
NERRS,ioos:station:NOAA.NERRS:apaebwq:1,2016-05-08T04:45:00Z,29.7858,-84.8752,1.51,1.9,1111122 
NERRS,ioos:station:NOAA.NERRS:apaebwq:1,2016-05-08T05:45:00Z,29.7858,-84.8752,1.58,1.8,1111122 
NERRS,ioos:station:NOAA.NERRS:apaebwq:1,2016-05-08T06:45:00Z,29.7858,-84.8752,1.71,1.8,1111122 
NERRS,ioos:station:NOAA.NERRS:apaebwq:1,2016-05-08T07:45:00Z,29.7858,-84.8752,1.85,1.5,1111122 
NERRS,ioos:station:NOAA.NERRS:apaebwq:1,2016-05-08T08:45:00Z,29.7858,-84.8752,2.0,1.2,1111122 
NERRS,ioos:station:NOAA.NERRS:apaebwq:1,2016-05-08T09:45:00Z,29.7858,-84.8752,2.12,1.1,1111122 
NERRS,ioos:station:NOAA.NERRS:apaebwq:1,2016-05-08T10:45:00Z,29.7858,-84.8752,2.21,0.9,1111122 
NERRS,ioos:station:NOAA.NERRS:apaebwq:1,2016-05-08T11:45:00Z,29.7858,-84.8752,2.22,1.0,1111122 
NERRS,ioos:station:NOAA.NERRS:apaebwq:1,2016-05-08T12:45:00Z,29.7858,-84.8752,2.18,1.2,1111122 
NERRS,ioos:station:NOAA.NERRS:apaebwq:1,2016-05-08T13:45:00Z,29.7858,-84.8752,2.1,1.2,1111122 
NERRS,ioos:station:NOAA.NERRS:apaebwq:1,2016-05-08T14:45:00Z,29.7858,-84.8752,2.03,1.3,1111122 
NERRS,ioos:station:NOAA.NERRS:apaebwq:1,2016-05-08T15:45:00Z,29.7858,-84.8752,2.01,1.2,1111122 
NERRS,ioos:station:NOAA.NERRS:apaebwq:1,2016-05-08T16:45:00Z,29.7858,-84.8752,2.04,1.2,1111122 
NERRS,ioos:station:NOAA.NERRS:apaebwq:1,2016-05-08T17:45:00Z,29.7858,-84.8752,2.13,1.1,1111122 
NERRS,ioos:station:NOAA.NERRS:apaebwq:1,2016-05-08T18:45:00Z,29.7858,-84.8752,2.24,1.0,1111122 
NERRS,ioos:station:NOAA.NERRS:apaebwq:1,2016-05-08T19:45:00Z,29.7858,-84.8752,2.31,0.8,1111122 
NERRS,ioos:station:NOAA.NERRS:apaebwq:1,2016-05-08T20:45:00Z,29.7858,-84.8752,2.32,0.8,1111122 
NERRS,ioos:station:NOAA.NERRS:apaebwq:1,2016-05-08T21:45:00Z,29.7858,-84.8752,2.28,0.8,1111122 
NERRS,ioos:station:NOAA.NERRS:apaebwq:1,2016-05-08T22:45:00Z,29.7858,-84.8752,2.18,1.4,1111122 
NERRS,ioos:station:NOAA.NERRS:apaebwq:1,2016-05-08T23:45:00Z,29.7858,-84.8752,2.06,1.1,1111122 
NERRS,ioos:station:NOAA.NERRS:apaebwq:1,2016-05-09T00:45:00Z,29.7858,-84.8752,1.94,1.2,1111122 
NERRS,ioos:station:NOAA.NERRS:apaebwq:1,2016-05-09T01:45:00Z,29.7858,-84.8752,1.84,1.3,1111122 
NERRS,ioos:station:NOAA.NERRS:apaebwq:1,2016-05-09T02:45:00Z,29.7858,-84.8752,1.73,1.4,1111122 
NERRS,ioos:station:NOAA.NERRS:apaebwq:1,2016-05-09T03:45:00Z,29.7858,-84.8752,1.63,1.7,1111122 
NERRS,ioos:station:NOAA.NERRS:apaebwq:1,2016-05-09T04:45:00Z,29.7858,-84.8752,1.57,1.7,1111122 
NERRS,ioos:station:NOAA.NERRS:apaebwq:1,2016-05-09T05:45:00Z,29.7858,-84.8752,1.57,1.7,1111122 
NERRS,ioos:station:NOAA.NERRS:apaebwq:1,2016-05-09T06:45:00Z,29.7858,-84.8752,1.67,1.7,1111122 
NERRS,ioos:station:NOAA.NERRS:apaebwq:1,2016-05-09T07:45:00Z,29.7858,-84.8752,1.82,1.5,1111122 
NERRS,ioos:station:NOAA.NERRS:apaebwq:1,2016-05-09T08:45:00Z,29.7858,-84.8752,1.98,1.3,1111122 
NERRS,ioos:station:NOAA.NERRS:apaebwq:1,2016-05-09T09:45:00Z,29.7858,-84.8752,2.14,1.1,1111122 
NERRS,ioos:station:NOAA.NERRS:apaebwq:1,2016-05-09T10:45:00Z,29.7858,-84.8752,2.27,0.9,1111122 
NERRS,ioos:station:NOAA.NERRS:apaebwq:1,2016-05-09T11:45:00Z,29.7858,-84.8752,2.34,1.2,1111122 
NERRS,ioos:station:NOAA.NERRS:apaebwq:1,2016-05-09T12:45:00Z,29.7858,-84.8752,2.35,1.2,1111122 
NERRS,ioos:station:NOAA.NERRS:apaebwq:1,2016-05-09T13:45:00Z,29.7858,-84.8752,2.31,1.2,1111122 
NERRS,ioos:station:NOAA.NERRS:apaebwq:1,2016-05-09T14:45:00Z,29.7858,-84.8752,2.23,1.4,1111122 
NERRS,ioos:station:NOAA.NERRS:apaebwq:1,2016-05-09T15:45:00Z,29.7858,-84.8752,2.17,1.3,1111122 
NERRS,ioos:station:NOAA.NERRS:apaebwq:1,2016-05-09T16:45:00Z,29.7858,-84.8752,2.15,1.1,1111122 
NERRS,ioos:station:NOAA.NERRS:apaebwq:1,2016-05-09T17:45:00Z,29.7858,-84.8752,2.19,1.1,1111122 
NERRS,ioos:station:NOAA.NERRS:apaebwq:1,2016-05-09T18:45:00Z,29.7858,-84.8752,2.26,1.2,1111122 
NERRS,ioos:station:NOAA.NERRS:apaebwq:1,2016-05-09T19:45:00Z,29.7858,-84.8752,2.33,1.2,1111122 
NERRS,ioos:station:NOAA.NERRS:apaebwq:1,2016-05-09T20:45:00Z,29.7858,-84.8752,2.37,1.1,1111122 
NERRS,ioos:station:NOAA.NERRS:apaebwq:1,2016-05-09T21:45:00Z,29.7858,-84.8752,2.35,1.3,1111122 
NERRS,ioos:station:NOAA.NERRS:apaebwq:1,2016-05-09T22:45:00Z,29.7858,-84.8752,2.29,1.3,1111122 
NERRS,ioos:station:NOAA.NERRS:apaebwq:1,2016-05-09T23:45:00Z,29.7858,-84.8752,2.21,1.2,1111122 
NERRS,ioos:station:NOAA.NERRS:apaebwq:1,2016-05-10T00:45:00Z,29.7858,-84.8752,2.1,1.1,1111122 
NERRS,ioos:station:NOAA.NERRS:apaebwq:1,2016-05-10T01:45:00Z,29.7858,-84.8752,1.98,1.2,1111122 
NERRS,ioos:station:NOAA.NERRS:apaebwq:1,2016-05-10T02:45:00Z,29.7858,-84.8752,1.86,1.3,1111122 
NERRS,ioos:station:NOAA.NERRS:apaebwq:1,2016-05-10T03:45:00Z,29.7858,-84.8752,1.74,1.4,1111122 
NERRS,ioos:station:NOAA.NERRS:apaebwq:1,2016-05-10T04:45:00Z,29.7858,-84.8752,1.65,1.6,1111122 
NERRS,ioos:station:NOAA.NERRS:apaebwq:1,2016-05-10T05:45:00Z,29.7858,-84.8752,1.6,1.7,1111122 
NERRS,ioos:station:NOAA.NERRS:apaebwq:1,2016-05-10T06:45:00Z,29.7858,-84.8752,1.63,1.7,1111122 
NERRS,ioos:station:NOAA.NERRS:apaebwq:1,2016-05-10T07:45:00Z,29.7858,-84.8752,1.75,1.6,1111122 
NERRS,ioos:station:NOAA.NERRS:apaebwq:1,2016-05-10T13:45:00Z,29.7858,-84.8752,2.35,1.0,1111122 
NERRS,ioos:station:NOAA.NERRS:apaebwq:1,2016-05-10T15:45:00Z,29.7858,-84.8752,2.25,1.5,1111122 
NERRS,ioos:station:NOAA.NERRS:apaebwq:1,2016-05-10T16:45:00Z,29.7858,-84.8752,2.22,1.3,1111122 
NERRS,ioos:station:NOAA.NERRS:apaebwq:1,2016-05-10T17:45:00Z,29.7858,-84.8752,2.25,1.3,1111122 
NERRS,ioos:station:NOAA.NERRS:apaebwq:1,2016-05-10T18:45:00Z,29.7858,-84.8752,2.29,1.3,1111122 
NERRS,ioos:station:NOAA.NERRS:apaebwq:1,2016-05-10T19:45:00Z,29.7858,-84.8752,2.34,1.2,1111122 
NERRS,ioos:station:NOAA.NERRS:apaebwq:1,2016-05-10T20:45:00Z,29.7858,-84.8752,2.41,1.2,1111122 
NERRS,ioos:station:NOAA.NERRS:apaebwq:1,2016-05-10T21:45:00Z,29.7858,-84.8752,2.44,1.0,1111122 
NERRS,ioos:station:NOAA.NERRS:apaebwq:1,2016-05-10T22:45:00Z,29.7858,-84.8752,2.42,1.2,1111122 
NERRS,ioos:station:NOAA.NERRS:apaebwq:1,2016-05-10T23:45:00Z,29.7858,-84.8752,2.34,1.2,1111122 
NERRS,ioos:station:NOAA.NERRS:apaebwq:1,2016-05-11T00:45:00Z,29.7858,-84.8752,2.23,1.1,1111122 
NERRS,ioos:station:NOAA.NERRS:apaebwq:1,2016-05-11T01:45:00Z,29.7858,-84.8752,2.12,1.1,1111122 
NERRS,ioos:station:NOAA.NERRS:apaebwq:1,2016-05-11T02:45:00Z,29.7858,-84.8752,2.02,1.2,1111122 
NERRS,ioos:station:NOAA.NERRS:apaebwq:1,2016-05-11T03:45:00Z,29.7858,-84.8752,1.91,1.4,1111122 
NERRS,ioos:station:NOAA.NERRS:apaebwq:1,2016-05-11T04:45:00Z,29.7858,-84.8752,1.8,1.5,1111122 
NERRS,ioos:station:NOAA.NERRS:apaebwq:1,2016-05-11T05:45:00Z,29.7858,-84.8752,1.69,1.6,1111122 
NERRS,ioos:station:NOAA.NERRS:apaebwq:1,2016-05-11T06:45:00Z,29.7858,-84.8752,1.63,1.6,1111122 
NERRS,ioos:station:NOAA.NERRS:apaebwq:1,2016-05-11T07:45:00Z,29.7858,-84.8752,1.63,1.6,1111122 
NERRS,ioos:station:NOAA.NERRS:apaebwq:1,2016-05-11T08:45:00Z,29.7858,-84.8752,1.74,1.5,1111122 
NERRS,ioos:station:NOAA.NERRS:apaebwq:1,2016-05-11T09:45:00Z,29.7858,-84.8752,1.9,1.3,1111122 
NERRS,ioos:station:NOAA.NERRS:apaebwq:1,2016-05-11T10:45:00Z,29.7858,-84.8752,2.05,1.3,1111122 
NERRS,ioos:station:NOAA.NERRS:apaebwq:1,2016-05-11T11:45:00Z,29.7858,-84.8752,2.17,1.1,1111122 
NERRS,ioos:station:NOAA.NERRS:apaebwq:1,2016-05-11T12:45:00Z,29.7858,-84.8752,2.26,0.9,1111122 
NERRS,ioos:station:NOAA.NERRS:apaebwq:1,2016-05-11T13:45:00Z,29.7858,-84.8752,2.3,1.1,1111122 
NERRS,ioos:station:NOAA.NERRS:apaebwq:1,2016-05-11T14:45:00Z,29.7858,-84.8752,2.26,1.2,1111122 
NERRS,ioos:station:NOAA.NERRS:apaebwq:1,2016-05-11T15:45:00Z,29.7858,-84.8752,2.19,1.2,1111122 
NERRS,ioos:station:NOAA.NERRS:apaebwq:1,2016-05-11T16:45:00Z,29.7858,-84.8752,2.14,1.3,1111122 
NERRS,ioos:station:NOAA.NERRS:apaebwq:1,2016-05-11T17:45:00Z,29.7858,-84.8752,2.12,1.3,1111122 
NERRS,ioos:station:NOAA.NERRS:apaebwq:1,2016-05-11T18:45:00Z,29.7858,-84.8752,2.13,1.1,1111122 
NERRS,ioos:station:NOAA.NERRS:apaebwq:1,2016-05-11T19:45:00Z,29.7858,-84.8752,2.16,1.3,1111122 
NERRS,ioos:station:NOAA.NERRS:apaebwq:1,2016-05-11T20:45:00Z,29.7858,-84.8752,2.22,1.3,1111122 
NERRS,ioos:station:NOAA.NERRS:apaebwq:1,2016-05-11T21:45:00Z,29.7858,-84.8752,2.27,1.3,1111122 
NERRS,ioos:station:NOAA.NERRS:apaebwq:1,2016-05-11T22:45:00Z,29.7858,-84.8752,2.3,1.2,1111122 
NERRS,ioos:station:NOAA.NERRS:apaebwq:1,2016-05-11T23:45:00Z,29.7858,-84.8752,2.29,1.2,1111122 
NERRS,ioos:station:NOAA.NERRS:apaebwq:1,2016-05-12T00:45:00Z,29.7858,-84.8752,2.24,1.0,1111122 
NERRS,ioos:station:NOAA.NERRS:apaebwq:1,2016-05-12T01:45:00Z,29.7858,-84.8752,2.14,1.2,1111122 
NERRS,ioos:station:NOAA.NERRS:apaebwq:1,2016-05-12T02:45:00Z,29.7858,-84.8752,2.02,1.1,1111122 
NERRS,ioos:station:NOAA.NERRS:apaebwq:1,2016-05-12T03:45:00Z,29.7858,-84.8752,1.9,1.3,1111122 
NERRS,ioos:station:NOAA.NERRS:apaebwq:1,2016-05-12T04:45:00Z,29.7858,-84.8752,1.81,1.4,1111122 
NERRS,ioos:station:NOAA.NERRS:apaebwq:1,2016-05-12T05:45:00Z,29.7858,-84.8752,1.73,1.4,1111122 
NERRS,ioos:station:NOAA.NERRS:apaebwq:1,2016-05-12T06:45:00Z,29.7858,-84.8752,1.68,1.4,1111122 
NERRS,ioos:station:NOAA.NERRS:apaebwq:1,2016-05-12T07:45:00Z,29.7858,-84.8752,1.68,1.4,1111122 
NERRS,ioos:station:NOAA.NERRS:apaebwq:1,2016-05-12T08:45:00Z,29.7858,-84.8752,1.75,1.3,1111122 
NERRS,ioos:station:NOAA.NERRS:apaebwq:1,2016-05-12T09:45:00Z,29.7858,-84.8752,1.88,1.2,1111122 
NERRS,ioos:station:NOAA.NERRS:apaebwq:1,2016-05-12T10:45:00Z,29.7858,-84.8752,2.01,1.2,1111122 
NERRS,ioos:station:NOAA.NERRS:apaebwq:1,2016-05-12T11:45:00Z,29.7858,-84.8752,2.13,1.1,1111122 
NERRS,ioos:station:NOAA.NERRS:apaebwq:1,2016-05-12T12:45:00Z,29.7858,-84.8752,2.23,1.1,1111122 
NERRS,ioos:station:NOAA.NERRS:apaebwq:1,2016-05-12T13:45:00Z,29.7858,-84.8752,2.29,1.0,1111122 
NERRS,ioos:station:NOAA.NERRS:apaebwq:1,2016-05-12T14:45:00Z,29.7858,-84.8752,2.28,1.1,1111122 
NERRS,ioos:station:NOAA.NERRS:apaebwq:1,2016-05-12T15:45:00Z,29.7858,-84.8752,2.23,1.1,1111122 
NERRS,ioos:station:NOAA.NERRS:apaebwq:1,2016-05-12T16:45:00Z,29.7858,-84.8752,2.15,1.4,1111122 
NERRS,ioos:station:NOAA.NERRS:apaebwq:1,2016-05-12T17:45:00Z,29.7858,-84.8752,2.09,1.4,1111122 
NERRS,ioos:station:NOAA.NERRS:apaebwq:1,2016-05-12T18:45:00Z,29.7858,-84.8752,2.07,1.3,1111122 
NERRS,ioos:station:NOAA.NERRS:apaebwq:1,2016-05-12T20:45:00Z,29.7858,-84.8752,2.14,1.3,1111122 
NERRS,ioos:station:NOAA.NERRS:apaebwq:1,2016-05-12T21:45:00Z,29.7858,-84.8752,2.21,1.1,1111122 
NERRS,ioos:station:NOAA.NERRS:apaebwq:1,2016-05-12T22:45:00Z,29.7858,-84.8752,2.23,1.0,1111122 
NERRS,ioos:station:NOAA.NERRS:apaebwq:1,2016-05-12T23:45:00Z,29.7858,-84.8752,2.22,1.0,1111122 
NERRS,ioos:station:NOAA.NERRS:apaebwq:1,2016-05-13T00:45:00Z,29.7858,-84.8752,2.2,1.1,1111122 
NERRS,ioos:station:NOAA.NERRS:apaebwq:1,2016-05-13T01:45:00Z,29.7858,-84.8752,2.14,1.2,1111122 
NERRS,ioos:station:NOAA.NERRS:apaebwq:1,2016-05-13T02:45:00Z,29.7858,-84.8752,2.04,1.4,1111122 
NERRS,ioos:station:NOAA.NERRS:apaebwq:1,2016-05-13T03:45:00Z,29.7858,-84.8752,1.93,1.5,1111122 
NERRS,ioos:station:NOAA.NERRS:apaebwq:1,2016-05-13T04:45:00Z,29.7858,-84.8752,1.84,1.4,1111122 
NERRS,ioos:station:NOAA.NERRS:apaebwq:1,2016-05-13T05:45:00Z,29.7858,-84.8752,1.76,1.5,1111122 
NERRS,ioos:station:NOAA.NERRS:apaebwq:1,2016-05-13T06:45:00Z,29.7858,-84.8752,1.7,1.4,1111122 
NERRS,ioos:station:NOAA.NERRS:apaebwq:1,2016-05-13T07:45:00Z,29.7858,-84.8752,1.67,1.4,1111122 
NERRS,ioos:station:NOAA.NERRS:apaebwq:1,2016-05-13T08:45:00Z,29.7858,-84.8752,1.7,1.3,1111122 
NERRS,ioos:station:NOAA.NERRS:apaebwq:1,2016-05-13T09:45:00Z,29.7858,-84.8752,1.77,1.2,1111122 
NERRS,ioos:station:NOAA.NERRS:apaebwq:1,2016-05-13T10:45:00Z,29.7858,-84.8752,1.88,1.3,1111122 
NERRS,ioos:station:NOAA.NERRS:apaebwq:1,2016-05-13T11:45:00Z,29.7858,-84.8752,1.98,1.2,1111122 
NERRS,ioos:station:NOAA.NERRS:apaebwq:1,2016-05-13T12:45:00Z,29.7858,-84.8752,2.09,1.2,1111122 
NERRS,ioos:station:NOAA.NERRS:apaebwq:1,2016-05-13T13:45:00Z,29.7858,-84.8752,2.19,1.1,1111122 
NERRS,ioos:station:NOAA.NERRS:apaebwq:1,2016-05-13T14:45:00Z,29.7858,-84.8752,2.23,1.0,1111122 